Location: Unspecified
(0.0000°N, 0.0000°E)
Time: 13:19:03
(UTC+00:00)

ISS - Pass Details

Date: 12 June 2021
Orbit: 417 x 422 km, 51.6° (Epoch: 18 June)

Event Time Altitude Azimuth Distance (km) Brightness Sun altitude
Rises 19:00:11 0° 318° (NW) 2,346 1.4 -13.8°
Reaches altitude 10° 19:02:18 10° 313° (NW) 1,487 0.2 -14.3°
Maximum altitude 19:05:34 54° 235° (SW) 514 -3.2 -15.0°
Enters shadow 19:07:30 22° 164° (SSE) 973 -2.3 -15.5°
